Location: Beetenbrück
(52.8113°N, 9.5946°E)
Time: 22:26:45
(UTC+00:00)

NOSS 3-4 (C) - Pass Details

Date: 14 April 2026
Orbit: 773 x 1438 km, 63.4° (Epoch: 26 December)

Event Time Altitude Azimuth Distance (km) Brightness Sun altitude
Rises 19:51:57 0° 195° (SSW) 3,241 6.0 -13.3°
Reaches altitude 10° 19:54:25 10° 187° (S) 2,336 5.2 -13.6°
Maximum altitude 19:59:15 38° 121° (ESE) 1,248 3.6 -14.2°
Drops below altitude 10° 20:04:34 10° 55° (NE) 2,568 5.6 -14.8°
Sets 20:07:24 0° 48° (NE) 3,607 6.4 -15.1°
